Search flights

Granada Airport, Granada (LEGR)

Meteorología aeropuerto y NOTAMs

METAR for:LEGR (Granada/Lorca Arpt, AN, ES)
Text:LEGR 260830Z VRB02KT CAVOK 23/11 Q1019
Conditions at:0830 UTC 26 May 2024
Temperature: 23.0°C ( 73°F)
Dewpoint: 11.0°C ( 52°F) [RH = 47%]
Pressure (altimeter):30.09 inches Hg (1019.0 mb)
Winds:variable direction winds at 2 MPH (2 knots; 1.0 m/s)
Visibility:6 or more sm (10+ km)
Ceiling:ceiling and visibility are OK
Clouds:unknown
TAF for:LEGR (Granada/Lorca Arpt, AN, ES) issued at 0500 UTC 26 May 2024
Text:TAF LEGR 260500Z 2606/2706 VRB02KT CAVOK TX33/2615Z TN13/2606Z
Forecast period:0600 to 1200 UTC 26 May 2024
Forecast type:FROM: standard forecast or significant change
Winds:variable direction winds at 2 MPH (2 knots; 1.0 m/s)
Visibility:6 or more sm (10+ km)
Clouds:missing
Temperature:MAX 33°C at 1500 UTC 26 May 2024
Temperature:MIN 13°C at 0600 UTC 26 May 2024
Text:BECMG 2612/2614 25010KT
Forecast period:1200 to 2000 UTC 26 May 2024
Forecast type:BECOMING: Conditions expected to become as follows by 1400 UTC 26 May 2024
Winds:from the WSW (250 degrees) at 12 MPH (10 knots; 5.1 m/s)
Visibility:6 or more sm (10+ km)
Clouds:missing
Text:BECMG 2620/2622 VRB02KT
Forecast period:2000 UTC 26 May 2024 to 0600 UTC 27 May 2024
Forecast type:BECOMING: Conditions expected to become as follows by 2200 UTC 26 May 2024
Winds:variable direction winds at 2 MPH (2 knots; 1.0 m/s)
Visibility:6 or more sm (10+ km)
Clouds:missing

Salidas y llegadas actuales

En este momento no hay salidas ni llegadas a este aeropuerto

Historial de salidas (últimos 12 meses)

Nº vuelo. Destino Aeronave Fecha
FNXIE16 GCTS PMDG 737-8... 2024-05-15 16:21:47
FNX1124 LEBL Fenix A320... 2024-04-30 07:49:33
FNXSEV03 LEZL PMDG 737-8... 2024-04-29 09:25:54
FNXSEV03 LEZL PMDG 737-8... 2024-04-25 08:38:50
FNXPARTN15 LEBB A310-300 W... 2024-04-23 10:30:55
FNXSEV03 LEZL PMDG 737-8... 2024-04-19 20:41:47
FNXSEV03 LEZL PMDG 737-8... 2024-04-15 16:48:01
FNXIE16 GCTS PMDG 737-8... 2024-04-13 06:40:20
FNXSEV03 LEZL PMDG 737-8... 2024-04-12 08:35:32
FNXSEV03 LEZL FenixA320... 2024-04-11 15:20:11
FNX205 LEMH PMDG 737-8... 2024-04-08 14:16:42
FNX101 LXGB Cockspur C... 2024-04-07 12:01:53
FNXPARTN15 LEBB PMDG 737-8... 2024-03-24 17:56:25
FNX208 LEBB FenixA320... 2024-03-24 17:27:21
FNX205 LESO PMDG 737-8... 2024-03-24 20:48:51
FNX101 LEBB PMDG 737-8... 2024-03-24 17:37:31
FNXTVE19 LEBA Blackwing... 2024-03-22 21:35:48
FNX205 LEBB PMDG 737-8... 2024-03-03 14:38:50
FNX302 LKPR PMDG 737-8... 2024-02-13 09:02:55
FNX101 LEZL C510 2024-02-09 11:35:41
FNX207 LEAL PMDG 737-8... 2024-01-29 08:20:28
FNX211 LIPZ PMDG 737-8... 2024-01-28 07:46:00
FNXPARTN15 LEBB PMDG 737-8... 2024-01-24 11:58:58
FNX203 HECA PMDG 737-8... 2024-01-20 20:03:52
FNX211 LEAS PMDG 737-8... 2024-01-18 20:15:38
FNX207 LEAS PMDG 737-8... 2024-01-18 18:22:14
FNX206 LEAS FenixA320... 2024-01-18 20:18:03
FNX207 LEAL TBM 930 Fe... 2024-01-17 18:30:06
FNX302 LFKC PMDG 737-8... 2024-01-05 10:42:02
FNX201 LEMD CRJ700 Fen... 2023-12-25 18:28:59
FNX1124 LEBL B733 Fenix... 2023-12-24 09:44:00
FNX302 LPPD PMDG 737-8... 2023-12-23 09:29:35
FNX207 LEGE PMDG 737-8... 2023-12-23 16:35:57
FNX102 LEVX PMDG 737-8... 2023-12-23 22:55:32
FNX302 LESO PMDG 737-8... 2023-12-19 09:11:13
FNX107 LEPA PMDG 737-8... 2023-09-02 20:26:44
FNX102 LEPA 737NG Seri... 2023-09-02 20:47:26
FNX107 LEPP PMDG 737-8... 2023-08-27 07:32:19
FNX101 LEJR ATR 72-600... 2023-06-22 19:20:07

Historial de llegadas (últimos 12 meses)

Nº vuelo. Origen Aeronave Fecha
FNXIE15 LEBL PMDG 737-8... 2024-05-14 19:28:26
FNX300 LEBL Fenix A320... 2024-04-29 19:45:24
FNXSEV02 LEMD PMDG 737-8... 2024-04-28 23:31:54
FNXSEV02 LEMD PMDG 737-8... 2024-04-24 08:41:38
FNXPARTN14 LEAL Black Squa... 2024-04-21 10:13:08
FNXSEV02 LEMD PMDG 737-8... 2024-04-19 17:37:49
FNXSEV02 LEMD PMDG 737-8... 2024-04-15 16:23:17
FNXIE15 LEBL PMDG 737-8... 2024-04-12 09:48:27
FNXSEV02 LEMD BOEING 737... 2024-04-11 20:24:58
FNXSEV02 LEMD FenixA320... 2024-04-11 14:59:37
FNXPARTN14 LEAL PMDG 737-8... 2024-03-24 17:10:11
FNX407 LEBL PMDG 737-8... 2024-03-24 13:50:43
FNX205 LEST PMDG 737-8... 2024-03-24 19:33:29
FNXTVE18 LEAM Blackwing... 2024-03-22 15:55:01
FNX205 LEAL PMDG 737-8... 2024-03-03 13:10:43
FNX101 LPPT PMDG 737-8... 2024-02-14 19:04:26
FNX302 GCFV PMDG 737-8... 2024-02-12 20:46:05
FNXPARTN14 LEAL PMDG 737-8... 2024-01-24 11:47:33
FNX207 LEMG Cessna Sky... 2024-01-24 09:29:33
FNX207 LFMN PMDG 737-8... 2024-01-18 17:50:43
FNX203 LEMD TBM 930 Fe... 2024-01-18 10:52:45
FNX207 LEZL TBM 930 Fe... 2024-01-17 09:56:55
FNX400 LEAS FenixA320... 2024-01-12 02:31:29
FNX302 GCXO PMDG 737-8... 2024-01-04 20:43:38
FNX201 LEMH CRJ700 Fen... 2023-12-25 12:23:09
FNX400 LEMH FenixA320... 2023-12-23 18:09:11
FNXSG01 LEMH PMDG 737-8... 2023-12-22 20:17:59
FNXSG01 LEMH PMDG 737-8... 2023-12-22 20:18:20
FNXSG01 LEMH B737-800 2023-12-22 20:02:00
FNXSG01 LEMH PMDG 737-8... 2023-12-22 19:41:42
FNXSG01 LEMH PMDG 737-8... 2023-12-22 19:40:04
FNX107 LECO PMDG 737-8... 2023-06-04 19:29:41
FNX101 LECO PMDG 737-8... 2023-06-04 19:34:50

Información de pista (Elevación del aeropuerto: 1,860ft)

Pista 09 Longitud 9,523ft Anchura 142ft Elevación 1,851ft Superficie Bituminous Rumbo 89
Pista 27 Longitud 9,523ft Anchura 142ft Elevación 1,851ft Superficie Bituminous Rumbo 269

Frecuencias del aeropuerto

Tipo APP/DEP Frecuencia 118.855 Mhz
Tipo APP/DEP Frecuencia 121.930 Mhz
Tipo ATIS Frecuencia 120.630 Mhz
Tipo Ground Frecuencia 121.930 Mhz
Tipo Tower Frecuencia 118.855 Mhz
Tipo Tower Frecuencia 121.930 Mhz
Tipo APP/DEP Frecuencia 118.850 Mhz
Tipo ATIS Frecuencia 120.625 Mhz
Tipo Ground Frecuencia 121.925 Mhz
Tipo Tower Frecuencia 118.850 Mhz

Radioayudas del aeropuerto

Tipo VOR-DME Identif. GDA Frecuencia 113400 Khz